Погода в Русском Камешкире

Россия / Пензенская область     52°51′36″N   46°05′15″E
темп.,
°C
ветер,
м/с
пор.,
м/с
влажн.,
%
обл.,
%
осадки,
мм/ч
давл.,
гПа
погр.,
м
2 июля, сб
сб200:00+11всв71097100 4.8 1009553
03:00+11св7129698 6.9 1010588
06:00+11ссв7129698 0.6 1011478
09:00+15ссв8128168 1.1 10111005
12:00+18св9157177 2.0 10101861
15:00+17св8127789 4.4 1011944
18:00+17ссв914740 0.9 1010975
21:00+15ссв815760 0.9 1011608
3 июля, вс
вс300:00+13ссв615845 0.0 1011433
03:00+12ссв5139165 0.0 1011332
06:00+14ссв5128553 0.0 1012384
09:00+19ссв79640 0.0 10121142
12:00+21ссв68510 0.0 10121899
15:00+22с67475 0.0 10112119
18:00+20с58665 0.0 1011593
21:00+15с37919 0.0 1012134
4 июля, пн
пн400:00+13с379673 0.0 1012151
03:00+12с499832 0.0 1012224
06:00+14с511902 0.0 1013495
09:00+18ссв612590 0.0 10141429
12:00+21ссв7105399 0.0 10142166
15:00+21с796126 0.3 10141358
18:00+19с477296 0.4 1014301
21:00+15ссв33747 0.4 101642
5 июля, вт
вт500:00+13ссв22825 0.0 101615
03:00+12ссв22855 0.0 101826
06:00+15с24775 0.0 1018128
09:00+20с34605 0.0 1018860
12:00+23с344711 0.0 10181927
15:00+24с34445 0.0 10181963
18:00+22с34595 0.0 1018223
21:00+17св22655 0.0 101811
6 июля, ср
ср600:00+15в11720 0.0 101911
03:00+14зсз00770 0.0 101911
06:00+17з01694 0.0 102057
09:00+22зюз22555 0.0 1019589
12:00+25зюз12465 0.0 10191444
15:00+27зюз234554 0.0 10182031
18:00+23зюз226599 0.0 101840
21:00+20зюз337572 0.0 101842